1512727200.88,5691,6.81,72664.0,1.61,-13.83,-13.01,0,*4A
1512727202.1,5692,6.75,72664.3,1.65,-13.07,-12.35,0,*47
1512727203.32,5693,6.81,72668.3,1.65,-13.07,-12.35,0,*46
1512727204.56,5694,6.75,72660.3,1.65,-13.37,-12.71,0,*42
1512727205.81,5695,6.81,72664.0,1.65,-13.33,-12.53,0,*47
1512727207.05,5696,6.81,72664.0,1.65,-12.35,-11.55,0,*46
1512727208.3,5697,6.81,72668.8,1.69,-13.01,-12.35,0,*48
1512727209.55,5698,6.75,72664.0,1.67,-13.19,-12.53,0,*40
1512727210.77,5699,6.81,72670.5,1.69,-13.47,-12.75,0,*40
1512727211.98,5700,6.75,72664.8,1.67,-13.11,-12.47,0,*4D
1512727213.25,5701,6.75,72664.5,1.67,-12.79,-11.97,0,*4D
1512727214.5,5702,6.81,72668.5,1.69,-11.55,-10.71,0,*44
1512727215.74,5703,6.81,72674.0,1.69,-11.37,-10.63,0,*42
1512727217.0,5704,6.81,72672.3,1.73,-11.45,-10.63,0,*4B
1512727218.21,5705,6.81,72666.8,1.75,-12.03,-11.33,0,*49
1512727219.44,5706,6.75,72664.3,1.77,-13.11,-12.39,0,*43
1512727220.72,5707,6.75,72668.3,1.77,-12.35,-11.55,0,*4C
1512727222.0,5708,6.81,72672.0,1.77,-11.55,-10.63,0,*42
1512727223.22,5709,6.75,72666.0,1.79,-11.97,-11.15,0,*43
1512727224.49,5710,6.75,72662.8,1.81,-12.79,-12.07,0,*4F
1512727225.75,5711,6.75,72666.3,1.79,-12.71,-11.93,0,*4F
1512727227.02,5712,6.81,72672.8,1.81,-12.15,-11.51,0,*47
1512727228.23,5713,6.75,72678.5,1.83,-11.97,-11.19,0,*41
1512727229.51,5714,6.75,72678.3,1.85,-11.59,-10.67,0,*4A
1512727230.79,5715,6.75,72686.5,1.85,-11.59,-10.75,0,*48
1512727232.05,5716,6.75,72682.3,1.89,-12.83,-12.11,0,*43
1512727233.27,5717,6.75,72672.0,1.89,-14.23,-13.43,0,*48
1512727234.5,5718,6.81,72666.3,1.83,-13.29,-12.47,0,*45
1512727235.72,5719,6.75,72662.5,1.83,-13.61,-12.97,0,*45
1512727236.94,5720,6.75,72662.3,1.83,-13.47,-12.75,0,*47
1512727238.16,5721,6.75,72664.3,1.83,-13.29,-12.47,0,*4F
1512727239.38,5722,6.75,72658.8,1.83,-13.43,-12.61,0,*44
1512727240.61,5723,6.75,72656.5,1.83,-12.75,-12.03,0,*45
1512727241.83,5724,6.81,72670.5,1.83,-13.19,-12.57,0,*48
1512727243.08,5725,6.75,72670.5,1.83,-13.61,-12.83,0,*4F
1512727244.28,5726,6.75,72668.8,1.83,-14.19,-13.55,0,*4E
1512727245.53,5727,6.75,72668.5,1.79,-14.55,-13.83,0,*49
1512727246.73,5728,6.75,72668.3,1.79,-14.23,-13.51,0,*48
1512727247.95,5729,6.81,72672.0,1.79,-13.65,-12.83,0,*42
1512727249.16,5730,6.75,72672.3,1.79,-13.69,-12.97,0,*43
1512727250.36,5731,6.75,72676.5,1.79,-14.19,-13.51,0,*49
1512727251.58,5732,6.75,72676.0,1.77,-13.65,-13.07,0,*4B
1512727252.85,5733,6.75,72678.3,1.77,-13.37,-12.65,0,*48
1512727254.1,5734,6.75,72668.5,1.75,-12.57,-11.85,0,*47
1512727255.35,5735,6.75,72668.5,1.77,-12.71,-12.25,0,*49
1512727256.63,5736,6.81,72670.5,1.77,-12.83,-12.11,0,*40
1512727257.9,5737,6.81,72672.0,1.77,-12.71,-12.07,0,*4B
1512727259.15,5738,6.75,72672.8,1.79,-12.65,-11.85,0,*46
1512727260.4,5739,6.75,72670.8,1.79,-12.11,-11.55,0,*49
1512727261.68,5740,6.75,72662.3,1.81,-13.37,-12.75,0,*44
1512727262.88,5741,6.75,72656.8,1.79,-12.93,-12.25,0,*48
1512727264.12,5742,6.75,72656.0,1.81,-13.37,-13.07,0,*42
1512727265.35,5743,6.75,72670.3,1.79,-14.05,-13.51,0,*41
1512727266.6,5744,6.75,72666.5,1.79,-13.29,-12.57,0,*48
1512727267.8,5745,6.75,72662.0,1.79,-13.69,-13.07,0,*49
1512727269.07,5746,6.75,72658.5,1.77,-12.83,-12.35,0,*41
1512727270.29,5747,6.75,72666.5,1.79,-12.83,-12.25,0,*4F
1512727271.52,5748,6.75,72658.8,1.77,-13.69,-13.11,0,*4D
1512727272.75,5749,6.75,72660.5,1.77,-14.23,-13.65,0,*46
1512727273.98,5750,6.81,72652.0,1.77,-14.19,-13.43,0,*43
1512727275.23,5751,6.75,72644.8,1.75,-13.97,-13.33,0,*46
1512727276.44,5752,6.75,72642.5,1.75,-13.55,-12.97,0,*44
1512727277.66,5753,6.81,72656.8,1.75,-14.33,-13.61,0,*4A
1512727278.9,5754,6.75,72658.0,1.77,-14.93,-14.29,0,*4E
1512727280.11,5755,6.75,72648.5,1.73,-14.69,-14.11,0,*45
1512727281.34,5756,6.75,72638.5,1.71,-15.53,-14.89,0,*4D
1512727282.58,5757,6.75,72648.0,1.69,-15.39,-14.75,0,*4A
1512727283.8,5758,6.81,72656.3,1.69,-13.61,-12.93,0,*40
1512727285.02,5759,6.75,72664.8,1.67,-13.11,-12.47,0,*41
1512727286.24,5760,6.75,72670.0,1.67,-12.97,-12.39,0,*4D
1512727287.51,5761,6.75,72668.8,1.67,-12.83,-12.35,0,*45
1512727288.73,5762,6.75,72670.3,1.69,-12.79,-12.29,0,*40
1512727289.95,5763,6.81,72676.3,1.69,-12.47,-11.89,0,*45
1512727291.19,5764,6.75,72674.5,1.69,-12.07,-11.37,0,*43
1512727292.43,5765,6.75,72676.0,1.69,-12.61,-12.07,0,*42
1512727293.68,5766,6.75,72678.8,1.69,-12.65,-12.07,0,*45
1512727294.93,5767,6.75,72684.0,1.69,-12.53,-11.89,0,*44
1512727296.17,5768,6.75,72678.3,1.69,-11.89,-11.33,0,*4E
1512727297.41,5769,6.75,72682.3,1.71,-12.15,-11.45,0,*41
1512727298.63,5770,6.75,72678.8,1.71,-13.15,-12.47,0,*49
1512727299.88,5771,6.75,72682.3,1.71,-13.51,-13.01,0,*4B
1512727301.09,5772,6.75,72670.8,1.71,-13.93,-13.47,0,*44
1512727302.31,5773,6.81,72672.0,1.71,-13.07,-12.43,0,*4D
1512727303.54,5774,6.75,72674.3,1.69,-11.93,-11.23,0,*49
1512727304.78,5775,6.75,72670.8,1.73,-11.85,-11.15,0,*41
1512727306.02,5776,6.81,72676.5,1.73,-12.61,-12.03,0,*4F
1512727307.25,5777,6.81,72676.8,1.75,-13.11,-12.57,0,*4F
1512727308.48,5778,6.75,72680.3,1.75,-13.23,-12.71,0,*45
1512727309.7,5779,6.75,72684.0,1.73,-13.11,-12.47,0,*46
1512727310.94,5780,6.75,72680.5,1.71,-13.19,-12.65,0,*4A
1512727312.19,5781,6.75,72680.3,1.73,-13.15,-12.71,0,*40
1512727313.46,5782,6.75,72676.0,1.71,-12.75,-12.15,0,*44
1512727314.71,5783,6.81,72686.3,1.73,-11.89,-11.23,0,*41
1512727315.97,5784,6.75,72680.3,1.73,-12.71,-12.15,0,*44
1512727317.2,5785,6.75,72682.3,1.73,-12.89,-12.29,0,*4D
1512727318.44,5786,6.75,72676.0,1.73,-13.23,-12.57,0,*46
1512727319.71,5787,6.75,72674.5,1.73,-12.71,-12.11,0,*43
1512727320.96,5788,6.81,72678.8,1.73,-12.47,-11.77,0,*4A
1512727322.21,5789,6.75,72678.3,1.73,-11.29,-10.57,0,*43
1512727323.43,5790,6.75,72680.5,1.75,-10.75,-10.09,0,*4E
1512727324.69,5791,6.75,72684.0,1.77,-10.75,-10.15,0,*40
1512727325.96,5792,6.75,72686.3,1.81,-11.51,-11.07,0,*4F
1512727327.21,5793,6.75,72688.0,1.81,-11.63,-10.93,0,*43
1512727328.44,5794,6.75,72688.8,1.81,-11.51,-10.85,0,*42
1512727329.69,5795,6.75,72688.0,1.81,-11.51,-10.97,0,*40
1512727330.91,5796,6.75,72686.3,1.81,-11.19,-10.53,0,*47
1512727332.15,5797,6.75,72688.5,1.85,-11.59,-10.93,0,*4A
1512727333.42,5798,6.75,72686.0,1.85,-11.85,-11.29,0,*44
1512727334.67,5799,6.75,72684.8,1.85,-13.33,-12.89,0,*43
1512727335.94,5800,6.75,72674.0,1.85,-13.87,-13.33,0,*43
1512727337.14,5801,6.81,72682.3,1.83,-14.15,-13.69,0,*47
1512727338.38,5802,6.75,72672.3,1.81,-14.75,-14.15,0,*4C
1512727339.61,5803,6.75,72672.8,1.79,-13.97,-13.55,0,*42
1512727340.86,5804,6.75,72668.8,1.79,-13.79,-13.29,0,*4E
1512727342.06,5805,6.75,72670.5,1.75,-13.43,-12.89,0,*41
1512727343.28,5806,6.81,72664.5,1.75,-13.11,-12.57,0,*46
1512727344.53,5807,6.75,72662.8,1.75,-13.29,-12.61,0,*49
1512727345.78,5808,6.75,72662.5,1.75,-13.01,-12.61,0,*4C
1512727347.01,5809,6.75,72660.3,1.75,-13.23,-12.71,0,*4C
1512727348.25,5810,6.75,72658.3,1.73,-12.83,-12.39,0,*45
1512727349.5,5811,6.81,72658.5,1.73,-12.47,-11.97,0,*4B
1512727350.71,5812,6.81,72652.0,1.73,-13.15,-12.47,0,*40
1512727351.96,5813,6.75,72652.5,1.71,-13.15,-12.53,0,*46
1512727353.23,5814,6.75,72650.0,1.71,-12.53,-12.07,0,*43
1512727354.48,5815,6.75,72648.8,1.71,-12.43,-11.89,0,*46
1512727355.72,5816,6.75,72650.8,1.71,-11.81,-11.11,0,*49
1512727356.97,5817,6.81,72650.8,1.73,-12.25,-11.63,0,*42
1512727358.22,5818,6.75,72648.5,1.73,-12.11,-11.45,0,*4E
1512727359.42,5819,6.75,72646.3,1.75,-12.89,-12.29,0,*41
1512727360.66,5820,6.75,72654.5,1.73,-13.15,-12.57,0,*40
1512727361.88,5821,6.75,72646.5,1.71,-12.93,-12.43,0,*49
1512727363.13,5822,6.81,72650.0,1.71,-12.47,-11.89,0,*46
1512727364.41,5823,6.75,72642.8,1.73,-13.29,-12.75,0,*4C
1512727365.63,5824,6.75,72638.3,1.71,-14.19,-13.73,0,*4A
1512727366.85,5825,6.81,72642.8,1.67,-15.11,-14.65,0,*45
1512727368.06,5826,6.75,72640.8,1.67,-14.65,-14.19,0,*4F
1512727369.28,5827,6.75,72640.8,1.61,-13.97,-13.43,0,*4A
1512727370.48,5828,6.75,72644.8,1.61,-13.47,-12.97,0,*40
1512727371.68,5829,6.75,72640.3,1.61,-13.73,-13.23,0,*48
1512727372.92,5830,6.75,72638.8,1.59,-13.15,-12.65,0,*48
1512727374.14,5831,6.75,72636.8,1.59,-13.65,-13.15,0,*48
1512727375.38,5832,6.75,72642.0,1.59,-13.19,-12.65,0,*46
1512727376.63,5833,6.75,72646.8,1.59,-13.47,-13.01,0,*4F
1512727377.82,5834,6.75,72648.0,1.57,-13.43,-12.89,0,*43
1512727379.07,5835,6.81,72654.5,1.55,-13.19,-12.61,0,*49
1512727380.27,5836,6.75,72666.8,1.53,-12.97,-12.39,0,*46
1512727381.55,5837,6.75,72676.3,1.55,-11.97,-11.29,0,*40
1512727382.82,5838,6.75,72670.8,1.55,-11.37,-10.79,0,*41
1512727384.04,5839,6.75,72672.3,1.57,-11.67,-11.19,0,*40
1512727385.29,5840,6.75,72678.0,1.57,-12.07,-11.59,0,*4F
1512727386.56,5841,6.75,72662.0,1.59,-12.65,-12.15,0,*4F
1512727387.8,5842,6.75,72664.3,1.59,-12.43,-11.81,0,*46
1512727389.02,5843,6.75,72672.8,1.57,-12.47,-11.89,0,*45
1512727390.25,5844,6.75,72672.3,1.57,-11.59,-10.97,0,*40
1512727391.5,5845,6.81,72674.8,1.57,-12.57,-12.07,0,*47
1512727392.75,5846,6.75,72676.0,1.59,-12.57,-12.03,0,*4E
1512727393.96,5847,6.75,72672.5,1.57,-12.43,-11.81,0,*4D
1512727395.2,5848,6.75,72674.5,1.59,-12.03,-11.37,0,*45
1512727396.45,5849,6.81,72672.5,1.59,-11.89,-11.23,0,*40
1512727397.73,5850,6.75,72672.8,1.59,-11.63,-11.07,0,*4A
1512727398.99,5851,6.75,72672.3,1.59,-11.23,-10.63,0,*4C
1512727400.24,5852,6.75,72668.5,1.59,-10.79,-10.15,0,*40
1512727401.43,5853,6.75,72670.8,1.65,-11.11,-10.45,0,*44
1512727402.65,5854,6.75,72660.5,1.65,-11.15,-10.67,0,*47
1512727403.89,5855,6.75,72664.3,1.65,-11.85,-11.29,0,*44
1512727405.11,5856,6.75,72664.8,1.65,-12.79,-12.25,0,*48
1512727406.31,5857,6.75,72670.8,1.61,-14.11,-13.55,0,*43
1512727407.56,5858,6.75,72672.8,1.61,-13.01,-12.53,0,*4D
1512727408.76,5859,6.75,72664.0,1.57,-13.47,-12.89,0,*4C
1512727409.98,5860,6.75,72660.0,1.59,-12.93,-12.43,0,*46
1512727411.21,5861,6.75,72656.5,1.59,-12.93,-12.47,0,*43
1512727412.4,5862,6.75,72656.3,1.57,-13.65,-13.15,0,*40
1512727413.62,5863,6.75,72656.5,1.55,-13.65,-13.11,0,*47
1512727414.85,5864,6.75,72652.3,1.55,-13.51,-12.93,0,*4C
1512727416.08,5865,6.75,72658.0,1.53,-13.23,-12.71,0,*42
1512727417.29,5866,6.75,72652.8,1.53,-13.55,-13.19,0,*4F
1512727418.48,5867,6.75,72658.0,1.49,-14.33,-13.65,0,*49
1512727419.71,5868,6.75,72656.8,1.49,-14.01,-13.55,0,*44
1512727420.93,5869,6.75,72660.3,1.49,-14.01,-13.47,0,*46
1512727422.19,5870,6.75,72664.0,1.45,-13.33,-12.79,0,*48
1512727423.39,5871,6.75,72664.5,1.45,-12.97,-12.47,0,*4B
1512727424.61,5872,6.75,72664.8,1.45,-13.11,-12.61,0,*43
1512727425.84,5873,6.75,72664.3,1.43,-13.69,-13.11,0,*4D
1512727427.05,5874,6.75,72662.0,1.39,-13.51,-12.93,0,*47
1512727428.28,5875,6.75,72662.3,1.39,-13.23,-12.79,0,*47
1512727429.53,5876,6.75,72662.5,1.39,-12.65,-12.11,0,*49
1512727430.76,5877,6.75,72656.8,1.39,-12.57,-12.03,0,*4A
1512727431.98,5878,6.75,72658.0,1.39,-12.39,-11.81,0,*44
1512727433.23,5879,6.75,72660.5,1.37,-13.23,-12.79,0,*45
1512727434.46,5880,6.75,72656.0,1.39,-13.23,-12.71,0,*45
1512727435.71,5881,6.75,72658.0,1.35,-13.33,-12.83,0,*44
1512727436.9,5882,6.81,72662.3,1.35,-13.55,-12.93,0,*46
1512727438.15,5883,6.75,72660.8,1.35,-13.33,-12.71,0,*4B
1512727439.4,5884,6.75,72660.3,1.33,-13.11,-12.61,0,*4B
1512727440.59,5885,6.75,72662.5,1.31,-13.65,-13.11,0,*4D
1512727441.82,5886,6.75,72664.5,1.31,-12.97,-12.35,0,*45
1512727443.04,5887,6.75,72660.5,1.31,-11.51,-10.93,0,*43
1512727444.27,5888,6.75,72662.8,1.33,-11.15,-10.53,0,*42
1512727445.54,5889,6.75,72664.3,1.33,-11.07,-10.41,0,*43
1512727446.79,5890,6.75,72664.0,1.35,-12.15,-11.63,0,*4C
1512727448.04,5891,6.75,72666.8,1.33,-13.11,-12.61,0,*4F
1512727449.28,5892,6.75,72668.3,1.35,-12.61,-11.89,0,*49
1512727450.52,5893,6.75,72666.5,1.37,-12.39,-11.81,0,*4F
1512727451.8,5894,6.75,72670.8,1.33,-11.93,-11.29,0,*4D
1512727453.02,5895,6.75,72668.3,1.35,-12.29,-11.85,0,*4E
1512727454.27,5896,6.75,72668.8,1.35,-12.35,-11.73,0,*49
1512727455.51,5897,6.75,72674.0,1.35,-12.15,-11.73,0,*4A
1512727456.76,5898,6.75,72668.8,1.33,-11.55,-10.97,0,*4F
1512727458.01,5899,6.75,72664.8,1.37,-12.29,-11.73,0,*49
1512727459.24,5900,6.75,72660.3,1.35,-12.25,-11.67,0,*43
1512727460.44,5901,6.75,72652.0,1.35,-11.45,-10.89,0,*46
1512727461.65,5902,6.75,72648.3,1.35,-12.43,-11.85,0,*4D
1512727462.9,5903,6.75,72650.0,1.37,-12.71,-12.25,0,*46
1512727464.12,5904,6.75,72642.0,1.33,-13.65,-13.11,0,*47
1512727465.35,5905,6.75,72636.3,1.31,-13.61,-13.19,0,*48
1512727466.55,5906,6.75,72652.0,1.31,-14.19,-13.73,0,*4F
1512727467.8,5907,6.75,72666.8,1.31,-14.51,-13.83,0,*4D
1512727469.0,5908,6.75,72678.0,1.27,-13.43,-12.93,0,*41
1512727470.25,5909,6.75,72676.3,1.25,-12.29,-11.73,0,*42
1512727471.49,5910,6.75,72682.3,1.25,-12.61,-12.03,0,*42
1512727472.73,5911,6.75,72672.8,1.25,-13.15,-12.61,0,*45
1512727473.99,5912,6.75,72660.5,1.23,-12.57,-11.89,0,*42
1512727475.22,5913,6.75,72654.8,1.23,-12.71,-12.29,0,*4E
1512727476.47,5914,6.75,72658.3,1.23,-12.75,-12.15,0,*42
1512727477.67,5915,6.75,72658.8,1.23,-13.73,-13.43,0,*46
1512727478.9,5916,6.75,72666.5,1.17,-14.15,-13.55,0,*42
1512727480.13,5917,6.75,72666.0,1.17,-14.15,-13.65,0,*40
1512727481.38,5918,6.75,72670.0,1.13,-13.97,-13.47,0,*46
1512727482.63,5919,6.75,72672.5,1.13,-13.61,-13.11,0,*4D
1512727483.88,5920,6.75,72666.8,1.13,-13.55,-13.01,0,*41
1512727485.12,5921,6.75,72672.8,1.11,-14.15,-13.61,0,*47
1512727486.39,5922,6.75,72674.3,1.09,-13.79,-13.37,0,*43
1512727487.62,5923,6.75,72664.5,1.05,-12.71,-12.39,0,*48
1512727488.87,5924,6.75,72658.0,1.07,-13.37,-13.11,0,*45
1512727490.13,5925,6.75,72668.3,1.07,-12.97,-12.53,0,*48
1512727491.33,5926,6.75,72682.0,1.05,-13.69,-13.23,0,*4F
1512727492.58,5927,6.75,72686.5,1.03,-13.55,-13.01,0,*47
1512727493.83,5928,6.75,72678.3,1.03,-12.47,-11.89,0,*48
1512727495.07,5929,6.75,72676.8,1.01,-11.77,-11.33,0,*4A
1512727496.3,5930,6.81,72672.8,1.03,-12.97,-12.47,0,*4D
1512727497.52,5931,6.75,72670.8,1.01,-13.97,-13.47,0,*4E
1512727498.78,5932,6.75,72672.3,1.01,-14.47,-13.97,0,*4A
1512727500.03,5933,6.75,72668.3,0.99,-14.23,-13.79,0,*79
1512727501.25,5934,6.75,72666.8,0.97,-14.65,-14.05,0,*7E
1512727502.49,5935,6.75,72676.8,0.91,-14.43,-13.93,0,*75
1512727503.73,5936,6.75,72672.8,0.91,-13.93,-13.37,0,*72
1512727504.97,5937,6.75,72668.8,0.87,-13.15,-12.65,0,*7C
1512727506.21,5938,6.75,72674.0,0.89,-13.87,-13.37,0,*70
1512727507.46,5939,6.75,72670.3,0.87,-13.51,-13.01,0,*71
1512727508.69,5940,6.75,72668.0,0.87,-13.51,-13.07,0,*79
1512727509.89,5941,6.75,72668.5,0.85,-13.51,-13.07,0,*7A
1512727511.12,5942,6.75,72670.8,0.85,-13.19,-12.75,0,*71
1512727512.37,5943,6.75,72664.0,0.83,-13.11,-12.53,0,*7A
1512727513.6,5944,6.75,72664.3,0.85,-13.19,-12.79,0,*7B
1512727514.84,5945,6.75,72668.3,0.83,-13.19,-12.65,0,*71
1512727516.1,5946,6.75,72668.5,0.85,-12.53,-11.93,0,*71
1512727517.33,5947,6.75,72672.0,0.83,-12.93,-12.39,0,*79
1512727518.58,5948,6.75,72676.8,0.83,-13.19,-12.65,0,*7C
1512727519.85,5949,6.75,72676.8,0.83,-12.53,-11.97,0,*7C
1512727521.1,5950,6.75,72672.0,0.83,-12.47,-11.85,0,*72
1512727522.38,5951,6.75,72674.5,0.83,-12.71,-12.11,0,*78
1512727523.63,5952,6.75,72670.3,0.83,-12.71,-12.21,0,*78
1512727524.91,5953,6.75,72670.5,0.83,-12.35,-11.67,0,*78
1512727526.14,5954,6.75,72676.0,0.83,-12.93,-12.47,0,*72
1512727527.36,5955,6.75,72680.3,0.81,-13.11,-12.53,0,*7F
1512727528.59,5956,6.75,72678.0,0.81,-12.25,-11.67,0,*7E
1512727529.83,5957,6.75,72688.0,0.79,-11.89,-11.15,0,*78
1512727531.04,5958,6.75,72684.0,0.81,-11.41,-10.89,0,*70
1512727532.26,5959,6.75,72678.3,0.81,-12.47,-11.93,0,*7E
1512727533.51,5960,6.75,72678.8,0.83,-12.79,-12.25,0,*75
1512727534.79,5961,6.75,72680.5,0.83,-12.65,-12.07,0,*79
1512727536.02,5962,6.75,72676.0,0.81,-12.21,-11.67,0,*7D
1512727537.27,5963,6.75,72674.3,0.79,-13.51,-13.01,0,*7F
1512727538.49,5964,6.75,72670.3,0.81,-12.97,-12.83,0,*7F
1512727539.76,5965,6.75,72664.5,0.79,-13.01,-12.57,0,*7E
1512727541.01,5966,6.75,72662.8,0.79,-12.29,-11.77,0,*77
1512727542.28,5967,6.75,72674.5,0.79,-11.73,-11.29,0,*71
1512727543.55,5968,6.75,72676.0,0.79,-12.57,-12.15,0,*77
1512727544.82,5969,6.75,72676.0,0.79,-13.83,-13.37,0,*7F
1512727546.05,5970,6.75,72678.5,0.73,-13.79,-13.33,0,*7C
1512727547.24,5971,6.75,72678.0,0.73,-12.47,-12.03,0,*73
1512727548.45,5972,6.75,72676.5,0.73,-12.47,-11.93,0,*7A
1512727549.66,5973,6.75,72680.5,0.73,-12.93,-12.57,0,*79
1512727550.87,5974,6.75,72684.8,0.69,-12.21,-11.67,0,*7C
1512727552.08,5975,6.75,72684.3,0.69,-11.85,-11.41,0,*74
1512727553.29,5976,6.75,72692.0,0.73,-12.03,-11.59,0,*78
1512727554.51,5977,6.75,72682.5,0.77,-12.43,-11.89,0,*74
1512727555.69,5978,6.75,72682.5,0.73,-12.89,-12.43,0,*7C
1512727556.9,5979,6.75,72682.3,0.69,-13.23,-12.83,0,*7B
1512727558.11,5980,6.75,72684.8,0.69,-13.19,-12.65,0,*7C
1512727559.32,5981,6.75,72680.8,0.69,-12.83,-12.39,0,*76
1512727560.55,5982,6.75,72678.8,0.67,-13.65,-13.29,0,*72
1512727561.76,5983,6.75,72682.0,0.65,-13.69,-13.37,0,*72
1512727562.96,5984,6.75,72682.0,0.65,-13.15,-12.83,0,*70
1512727564.2,5985,6.75,72682.0,0.63,-13.19,-12.75,0,*72
1512727565.44,5986,6.75,72682.0,0.63,-13.15,-12.71,0,*79
1512727566.68,5987,6.75,72676.0,0.63,-13.15,-12.71,0,*78
1512727567.88,5988,6.75,72678.8,0.61,-13.79,-13.47,0,*7B
1512727569.09,5989,6.75,72676.8,0.59,-14.11,-13.73,0,*7F
1512727570.32,5990,6.75,72678.8,0.59,-14.11,-13.79,0,*7D
1512727571.56,5991,6.75,72682.8,0.55,-13.97,-13.65,0,*74
1512727572.77,5992,6.75,72684.0,0.55,-13.55,-13.23,0,*7B
1512727573.98,5993,6.75,72686.3,0.53,-13.19,-12.83,0,*7F
1512727575.19,5994,6.75,72682.8,0.53,-12.75,-12.29,0,*73
1512727576.39,5995,6.75,72688.0,0.53,-12.83,-12.43,0,*77
1512727577.66,5996,6.75,72680.0,0.51,-12.35,-11.85,0,*72
1512727578.91,5997,6.75,72684.8,0.51,-13.33,-13.01,0,*7A
1512727580.15,5998,6.75,72694.3,0.51,-12.89,-12.61,0,*72
1512727581.38,5999,6.75,72680.5,0.51,-13.43,-13.01,0,*73
1512727582.6,6000,6.75,72678.8,0.45,-13.07,-12.75,0,*7E
1512727583.79,6001,6.75,72676.8,0.45,-13.23,-12.93,0,*71
1512727585.03,6002,6.75,72682.0,0.45,-13.61,-13.33,0,*7F
1512727586.23,6003,6.75,72694.3,0.45,-13.51,-13.11,0,*7D
1512727587.44,6004,6.75,72698.8,0.43,-12.79,-12.39,0,*7C
1512727588.67,6005,6.75,72680.3,0.41,-13.43,-13.29,0,*77
1512727589.87,6006,6.75,72686.5,0.41,-14.37,-14.11,0,*7C
1512727591.08,6007,6.75,72688.8,0.39,-12.93,-12.57,0,*7E
1512727592.27,6008,6.75,72694.5,0.39,-13.43,-12.97,0,*71
1512727593.48,6009,6.75,72688.5,0.39,-13.65,-13.33,0,*7B
1512727594.72,6010,6.75,72694.5,0.37,-12.47,-12.15,0,*79
1512727595.96,6011,6.75,72696.0,0.37,-12.75,-12.47,0,*7E
1512727597.19,6012,6.75,72688.5,0.37,-12.79,-12.39,0,*78
1512727598.43,6013,6.75,72690.3,0.37,-13.37,-13.07,0,*7E
1512727599.64,6014,6.75,72690.5,0.37,-13.23,-12.89,0,*7B
1512727600.87,6015,6.75,72694.5,0.37,-13.23,-13.01,0,*7B
1512727602.08,6016,6.75,72692.3,0.33,-13.69,-13.43,0,*74
1512727603.29,6017,6.75,72692.0,0.33,-13.69,-13.51,0,*76
1512727604.5,6018,6.75,72684.8,0.33,-13.69,-13.47,0,*7E
1512727605.71,6019,6.75,72690.0,0.29,-14.33,-14.15,0,*7C
1512727606.96,6020,6.75,72686.3,0.29,-13.83,-13.55,0,*79
1512727608.17,6021,6.75,72692.3,0.27,-12.97,-12.57,0,*71
1512727609.39,6022,6.75,72692.5,0.27,-12.89,-12.61,0,*78
1512727610.6,6023,6.75,72692.3,0.23,-13.73,-13.37,0,*7B
1512727611.82,6024,6.75,72692.8,0.23,-13.33,-12.93,0,*77
1512727613.03,6025,6.75,72692.0,0.23,-13.07,-12.65,0,*78
1512727614.22,6026,6.75,72698.0,0.23,-13.15,-12.93,0,*71
1512727615.43,6027,6.75,72696.0,0.23,-12.79,-12.39,0,*7B
1512727616.68,6028,6.75,72702.3,0.21,-12.71,-12.39,0,*7E
1512727617.91,6029,6.75,72706.3,0.21,-12.39,-12.07,0,*7E
1512727619.13,6030,6.75,72704.3,0.23,-12.93,-12.65,0,*70
1512727620.32,6031,6.75,72706.8,0.19,-13.11,-12.93,0,*7A
1512727621.54,6032,6.75,72696.5,0.21,-13.23,-12.97,0,*77
1512727622.73,6033,6.75,72694.8,0.19,-13.43,-13.23,0,*75
1512727623.92,6034,6.75,72698.3,0.19,-13.19,-12.93,0,*77
1512727625.11,6035,6.75,72696.5,0.19,-13.55,-13.43,0,*72
1512727626.3,6036,6.75,72696.5,0.15,-13.69,-13.43,0,*72
1512727627.57,6037,6.75,72698.5,0.17,-13.83,-13.61,0,*75
1512727628.79,6038,6.75,72696.3,0.15,-13.97,-13.73,0,*7E
1512727630.0,6039,6.75,72696.3,0.15,-13.33,-13.15,0,*71
1512727631.27,6040,6.75,72698.8,0.13,-13.01,-12.75,0,*7F
1512727632.54,6041,6.75,72692.0,0.13,-13.01,-12.65,0,*7F
1512727633.77,6042,6.75,72692.5,0.11,-12.65,-12.43,0,*79
1512727635.02,6043,6.75,72690.0,0.13,-12.53,-12.29,0,*73
1512727636.23,6044,6.75,72688.3,0.11,-12.47,-12.21,0,*7B
1512727637.48,6045,6.75,72684.5,0.13,-12.35,-12.21,0,*7D
1512727638.73,6046,6.75,72684.5,0.13,-12.21,-11.89,0,*7A
1512727639.95,6047,6.75,72684.8,0.15,-11.85,-11.45,0,*70
1512727641.19,6048,6.75,72686.3,0.15,-11.89,-11.59,0,*7E
1512727642.43,6049,6.75,72682.5,0.15,-12.15,-11.77,0,*75
1512727643.65,6050,6.75,72680.3,0.15,-12.71,-12.43,0,*7B
1512727644.86,6051,6.75,72680.3,0.15,-12.89,-12.61,0,*7D
1512727646.11,6052,6.75,72682.8,0.13,-12.89,-12.53,0,*79
1512727647.3,6053,6.75,72680.0,0.15,-13.11,-12.89,0,*79
1512727648.51,6054,6.75,72680.5,0.15,-12.89,-12.61,0,*78
1512727649.76,6055,6.75,72676.5,0.13,-13.07,-12.75,0,*7D
1512727650.98,6056,6.75,72684.0,0.11,-13.19,-12.89,0,*70
1512727652.19,6057,6.75,72680.5,0.13,-13.15,-12.89,0,*7F
1512727653.43,6058,6.75,72682.0,0.13,-13.07,-12.79,0,*7C
1512727654.67,6059,6.75,72678.3,0.11,-12.61,-12.43,0,*77
1512727655.85,6060,6.75,72682.3,0.09,-12.47,-12.21,0,*44
1512727657.09,6061,6.75,72680.3,0.11,-12.93,-12.65,0,*75
1512727658.33,6062,6.75,72676.8,0.11,-13.29,-13.19,0,*7C
1512727659.59,6063,6.75,72678.3,0.07,-14.05,-13.83,0,*40
1512727660.85,6064,6.75,72678.0,0.07,-13.97,-13.79,0,*4E
1512727662.06,6065,6.75,72676.3,0.09,-14.05,-13.93,0,*49
1512727663.3,6066,6.75,72682.5,0.05,-14.01,-13.61,0,*4F
1512727664.51,6067,6.75,72684.3,0.05,-14.01,-13.73,0,*4D
1512727665.74,6068,6.75,72682.0,0.01,-13.87,-13.61,0,*4C
1512727666.97,6069,6.75,72686.3,0.01,-13.87,-13.61,0,*4D
1512727668.22,6070,6.75,72678.0,-0.01,-14.19,-14.05,0,*6D
1512727669.43,6071,6.75,72676.8,-0.03,-13.79,-13.51,0,*69
1512727670.64,6072,6.75,72678.5,-0.03,-13.79,-13.65,0,*6D
1512727671.85,6073,6.75,72676.0,-0.05,-13.65,-13.51,0,*60
1512727673.1,6074,6.75,72676.3,-0.07,-14.01,-13.87,0,*6B
1512727674.33,6075,6.75,72674.3,-0.07,-13.37,-13.01,0,*66
1512727675.53,6076,6.75,72680.5,-0.07,-13.23,-12.97,0,*6E
1512727676.77,6077,6.75,72676.5,-0.07,-12.83,-12.71,0,*6C
1512727678.01,6078,6.75,72678.8,-0.07,-13.29,-13.01,0,*64
1512727679.2,6079,6.75,72678.8,-0.07,-13.55,-13.23,0,*6E
1512727680.38,6080,6.75,72678.0,-0.07,-13.43,-13.15,0,*6A
1512727681.62,6081,6.75,72680.3,-0.09,-13.33,-13.15,0,*62
1512727682.84,6082,6.75,72680.3,-0.11,-13.33,-13.15,0,*58
1512727684.08,6083,6.75,72676.0,-0.11,-12.79,-12.61,0,*54
1512727685.3,6084,6.75,72680.0,-0.11,-13.29,-13.15,0,*55
1512727686.48,6085,6.75,72676.0,-0.11,-13.43,-13.15,0,*58
1512727687.7,6086,6.75,72676.3,-0.09,-13.43,-13.15,0,*62
1512727688.93,6087,6.75,72678.3,-0.13,-13.19,-12.93,0,*58
1512727690.13,6088,6.75,72678.0,-0.15,-13.23,-12.93,0,*58
1512727691.32,6089,6.75,72678.8,-0.15,-13.23,-13.07,0,*55
1512727692.57,6090,6.75,72674.5,-0.15,-12.79,-12.53,0,*53
1512727693.8,6091,6.75,72678.8,-0.13,-12.39,-12.21,0,*55
1512727695.07,6092,6.75,72668.8,-0.13,-12.83,-12.53,0,*52
1512727696.3,6093,6.75,72678.8,-0.15,-12.97,-12.75,0,*54
1512727697.52,6094,6.75,72674.5,-0.15,-13.19,-12.83,0,*5D
1512727698.77,6095,6.75,72672.0,-0.13,-13.07,-12.79,0,*50
1512727700.0,6096,6.75,72674.0,-0.15,-13.23,-12.83,0,*56
1512727701.22,6097,6.75,72670.8,-0.15,-13.33,-13.11,0,*5C
1512727702.45,6098,6.75,72666.0,-0.15,-13.51,-13.33,0,*57
1512727703.65,6099,6.75,72670.0,-0.15,-13.11,-12.93,0,*59
1512727704.86,6100,6.75,72670.0,-0.21,-13.15,-12.83,0,*5A
1512727706.11,6101,6.75,72660.5,-0.17,-12.89,-12.79,0,*5F
1512727707.3,6102,6.75,72664.5,-0.21,-13.15,-12.89,0,*52
1512727708.52,6103,6.75,72660.8,-0.21,-13.51,-13.29,0,*58
1512727709.74,6104,6.75,72660.0,-0.21,-13.65,-13.37,0,*57
1512727710.99,6105,6.75,72664.3,-0.17,-12.89,-12.71,0,*53
1512727712.19,6106,6.75,72664.8,-0.21,-13.11,-12.89,0,*52
1512727713.43,6107,6.75,72664.5,-0.21,-13.01,-12.83,0,*58
1512727714.68,6108,6.75,72664.0,-0.21,-13.01,-12.79,0,*52
1512727715.92,6109,6.75,72668.0,-0.21,-13.01,-12.83,0,*56
1512727717.14,6110,6.75,72670.0,-0.21,-13.11,-12.83,0,*5F
1512727718.38,6111,6.75,72676.8,-0.25,-13.29,-13.01,0,*5A